N925FL KFXE-MYNN

Flight info

Callsign N925FL
Flight time 0h 29m
Altitude 20000
Route GABOW2 RAJAY
Aircraft E35L/M-SDFGIRWXY/SB1

Departure

Time 2026-04-20 23:01
Airport Fort Lauderdale Executive Airport (KFXE)

Arrival

Time 2026-04-20 23:30
Airport Lynden Pindling International Airport (MYNN)
Time Latitude Longitude Altitude Speed Heading
2026-04-20 22:45 26.19450 -80.17091 13 ft 2 kts 75°
2026-04-20 22:45 26.19447 -80.17104 13 ft 0 kts 75°
2026-04-20 22:56 26.19447 -80.17102 13 ft 0 kts 75°
2026-04-20 22:56 26.19448 -80.17099 13 ft 0 kts 75°
2026-04-20 22:56 26.19449 -80.17095 13 ft 1 kts 74°
2026-04-20 22:56 26.19468 -80.17082 13 ft 5 kts
2026-04-20 22:57 26.19517 -80.17088 13 ft 8 kts 16°
2026-04-20 22:57 26.19582 -80.17100 13 ft 12 kts 308°
2026-04-20 22:57 26.19642 -80.17184 13 ft 15 kts 309°
2026-04-20 22:57 26.19719 -80.17287 13 ft 18 kts 306°
2026-04-20 22:58 26.19727 -80.17440 13 ft 22 kts 263°
2026-04-20 22:58 26.19709 -80.17625 13 ft 25 kts 262°
2026-04-20 22:58 26.19689 -80.17836 13 ft 29 kts 264°
2026-04-20 22:58 26.19672 -80.17998 13 ft 14 kts 263°
2026-04-20 22:59 26.19690 -80.18066 13 ft 9 kts 327°
2026-04-20 22:59 26.19750 -80.18081 13 ft 2 kts 352°
2026-04-20 22:59 26.19760 -80.18072 13 ft 3 kts 83°
2026-04-20 22:59 26.19761 -80.18053 13 ft 0 kts 84°
2026-04-20 23:00 26.19779 -80.17863 13 ft 70 kts 82°
2026-04-20 23:00 26.19865 -80.16985 49 ft 146 kts 78°
2026-04-20 23:01 26.19972 -80.15796 701 ft 167 kts 81°
2026-04-20 23:01 26.20074 -80.14485 1570 ft 185 kts 80°
2026-04-20 23:01 26.20172 -80.12941 2389 ft 213 kts 82°
2026-04-20 23:01 26.20247 -80.11269 3451 ft 228 kts 84°
2026-04-20 23:02 26.20331 -80.09431 4400 ft 247 kts 84°
2026-04-20 23:02 26.20427 -80.07513 5575 ft 255 kts 84°
2026-04-20 23:02 26.20541 -80.05524 6704 ft 264 kts 83°
2026-04-20 23:02 26.20663 -80.03475 7819 ft 272 kts 84°
2026-04-20 23:03 26.20797 -80.01353 8908 ft 280 kts 84°
2026-04-20 23:03 26.20941 -79.99143 9840 ft 293 kts 84°
2026-04-20 23:03 26.21098 -79.96849 10766 ft 305 kts 84°
2026-04-20 23:03 26.21235 -79.94449 11647 ft 318 kts 84°
2026-04-20 23:04 26.21364 -79.91955 12569 ft 329 kts 85°
2026-04-20 23:04 26.21495 -79.89377 13412 ft 341 kts 85°
2026-04-20 23:04 26.21632 -79.86661 14238 ft 353 kts 85°
2026-04-20 23:04 26.21772 -79.83888 15074 ft 363 kts 85°
2026-04-20 23:05 26.21915 -79.81044 15972 ft 370 kts 85°
2026-04-20 23:05 26.22059 -79.78156 16804 ft 379 kts 85°
2026-04-20 23:05 26.22206 -79.75206 17659 ft 385 kts 85°
2026-04-20 23:05 26.22354 -79.72214 18469 ft 392 kts 85°
2026-04-20 23:06 26.22506 -79.69124 19342 ft 397 kts 85°
2026-04-20 23:06 26.22659 -79.66013 20031 ft 408 kts 85°
2026-04-20 23:06 26.22773 -79.62773 20101 ft 435 kts 91°
2026-04-20 23:06 26.22150 -79.59335 20123 ft 460 kts 111°
2026-04-20 23:07 26.20740 -79.56037 20132 ft 470 kts 117°
2026-04-20 23:07 26.19373 -79.52827 20114 ft 453 kts 116°
2026-04-20 23:07 26.18046 -79.49664 20113 ft 449 kts 116°
2026-04-20 23:07 26.16717 -79.46482 20104 ft 446 kts 116°
2026-04-20 23:08 26.15412 -79.43355 20110 ft 444 kts 116°
2026-04-20 23:08 26.14111 -79.40247 20103 ft 442 kts 116°
2026-04-20 23:08 26.12607 -79.37250 20107 ft 439 kts 122°
2026-04-20 23:08 26.11077 -79.34318 20098 ft 438 kts 122°
2026-04-20 23:09 26.09547 -79.31386 20096 ft 436 kts 122°
2026-04-20 23:09 26.07999 -79.28419 20096 ft 435 kts 122°
2026-04-20 23:09 26.06480 -79.25510 20101 ft 434 kts 122°
2026-04-20 23:09 26.04966 -79.22614 20089 ft 433 kts 122°
2026-04-20 23:10 26.03448 -79.19713 20094 ft 432 kts 122°
2026-04-20 23:10 26.01914 -79.16779 20096 ft 431 kts 122°
2026-04-20 23:10 26.00400 -79.13889 20085 ft 430 kts 122°
2026-04-20 23:10 25.98894 -79.11020 20098 ft 430 kts 123°
2026-04-20 23:11 25.97185 -79.08262 20094 ft 432 kts 127°
2026-04-20 23:11 25.95416 -79.05459 20092 ft 439 kts 127°
2026-04-20 23:11 25.93647 -79.02643 20092 ft 444 kts 127°
2026-04-20 23:11 25.91869 -78.99809 20089 ft 449 kts 127°
2026-04-20 23:12 25.90061 -78.96930 20086 ft 453 kts 127°
2026-04-20 23:12 25.88227 -78.94010 20085 ft 455 kts 127°
2026-04-20 23:12 25.86418 -78.91131 20083 ft 457 kts 127°
2026-04-20 23:12 25.84584 -78.88215 20090 ft 458 kts 127°
2026-04-20 23:13 25.82738 -78.85281 20077 ft 459 kts 127°
2026-04-20 23:13 25.80897 -78.82355 20087 ft 459 kts 127°
2026-04-20 23:13 25.79055 -78.79433 20085 ft 458 kts 127°
2026-04-20 23:13 25.77224 -78.76528 20090 ft 457 kts 127°
2026-04-20 23:14 25.75400 -78.73637 20082 ft 453 kts 127°
2026-04-20 23:14 25.73589 -78.70745 20087 ft 450 kts 126°
2026-04-20 23:14 25.71825 -78.67860 20084 ft 448 kts 126°
2026-04-20 23:14 25.70046 -78.64957 20082 ft 445 kts 126°
2026-04-20 23:15 25.68317 -78.62135 20084 ft 443 kts 126°
2026-04-20 23:15 25.66571 -78.59290 19879 ft 445 kts 126°
2026-04-20 23:15 25.64816 -78.56431 19534 ft 435 kts 126°
2026-04-20 23:15 25.63142 -78.53705 19200 ft 423 kts 126°
2026-04-20 23:16 25.61486 -78.51011 18856 ft 413 kts 126°
2026-04-20 23:16 25.59864 -78.48372 18507 ft 404 kts 126°
2026-04-20 23:16 25.58300 -78.45837 18166 ft 395 kts 127°
2026-04-20 23:16 25.56409 -78.43631 17830 ft 383 kts 142°
2026-04-20 23:17 25.54389 -78.41707 17495 ft 377 kts 142°
2026-04-20 23:17 25.52420 -78.39830 17167 ft 372 kts 142°
2026-04-20 23:17 25.50429 -78.37934 16833 ft 368 kts 142°
2026-04-20 23:17 25.48500 -78.36098 16500 ft 364 kts 142°
2026-04-20 23:18 25.46573 -78.34265 16160 ft 360 kts 142°
2026-04-20 23:18 25.44660 -78.32446 15812 ft 356 kts 142°
2026-04-20 23:18 25.42796 -78.30675 15467 ft 353 kts 142°
2026-04-20 23:18 25.40916 -78.28889 15116 ft 347 kts 142°
2026-04-20 23:19 25.39102 -78.27168 14781 ft 342 kts 142°
2026-04-20 23:19 25.37306 -78.25462 14444 ft 337 kts 141°
2026-04-20 23:19 25.35472 -78.23723 14102 ft 347 kts 141°
2026-04-20 23:19 25.33606 -78.21954 13774 ft 354 kts 141°
2026-04-20 23:20 25.31702 -78.20149 13442 ft 360 kts 141°
2026-04-20 23:20 25.29877 -78.18158 13093 ft 365 kts 127°
2026-04-20 23:20 25.28568 -78.15760 12777 ft 368 kts 120°
2026-04-20 23:20 25.27266 -78.13284 12430 ft 371 kts 121°
2026-04-20 23:21 25.25957 -78.10799 12095 ft 372 kts 121°
2026-04-20 23:21 25.24644 -78.08310 11767 ft 373 kts 121°
2026-04-20 23:21 25.23334 -78.05830 11435 ft 373 kts 121°
2026-04-20 23:21 25.22012 -78.03327 11103 ft 371 kts 120°
2026-04-20 23:22 25.20707 -78.00859 10770 ft 370 kts 120°
2026-04-20 23:22 25.19403 -77.98394 10434 ft 368 kts 120°
2026-04-20 23:22 25.18120 -77.95966 10095 ft 358 kts 120°
2026-04-20 23:22 25.16885 -77.93632 9752 ft 344 kts 120°
2026-04-20 23:23 25.15698 -77.91393 9408 ft 332 kts 120°
2026-04-20 23:23 25.14552 -77.89230 9068 ft 322 kts 120°
2026-04-20 23:23 25.13424 -77.87103 8721 ft 314 kts 120°
2026-04-20 23:23 25.12331 -77.85042 8360 ft 306 kts 119°
2026-04-20 23:24 25.11255 -77.83015 8011 ft 299 kts 119°
2026-04-20 23:24 25.10208 -77.81042 7677 ft 294 kts 118°
2026-04-20 23:24 25.09170 -77.79089 7339 ft 289 kts 118°
2026-04-20 23:24 25.08156 -77.77180 6987 ft 285 kts 118°
2026-04-20 23:25 25.07156 -77.75300 6647 ft 281 kts 118°
2026-04-20 23:25 25.06170 -77.73445 6175 ft 276 kts 118°
2026-04-20 23:25 25.05191 -77.71605 5750 ft 277 kts 118°
2026-04-20 23:25 25.04215 -77.69769 5299 ft 279 kts 117°
2026-04-20 23:26 25.03643 -77.67763 4822 ft 274 kts 91°
2026-04-20 23:26 25.03332 -77.65684 4305 ft 274 kts 107°
2026-04-20 23:26 25.02800 -77.63755 3815 ft 247 kts 92°
2026-04-20 23:26 25.02841 -77.62058 3385 ft 202 kts 80°
2026-04-20 23:27 25.03008 -77.60591 2915 ft 188 kts 78°
2026-04-20 23:27 25.03208 -77.59193 2431 ft 190 kts 77°
2026-04-20 23:27 25.03432 -77.57690 2047 ft 193 kts 77°
2026-04-20 23:27 25.03548 -77.56349 1935 ft 165 kts 85°
2026-04-20 23:28 25.03552 -77.55125 1654 ft 154 kts 84°
2026-04-20 23:28 25.03559 -77.53985 1381 ft 141 kts 84°
2026-04-20 23:28 25.03567 -77.52935 1053 ft 135 kts 85°
2026-04-20 23:28 25.03574 -77.51897 733 ft 141 kts 85°
2026-04-20 23:29 25.03595 -77.50774 560 ft 146 kts 85°
2026-04-20 23:29 25.03591 -77.49702 334 ft 133 kts 86°
2026-04-20 23:29 25.03600 -77.48726 138 ft 126 kts 88°
2026-04-20 23:29 25.03595 -77.47762 13 ft 123 kts 86°
2026-04-20 23:30 25.03597 -77.46899 7 ft 98 kts 89°
2026-04-20 23:30 25.03603 -77.46286 7 ft 54 kts 89°
2026-04-20 23:30 25.03587 -77.46046 7 ft 18 kts 121°
2026-04-20 23:30 25.03491 -77.45951 7 ft 20 kts 135°
2026-04-20 23:31 25.03385 -77.45829 7 ft 16 kts 133°
2026-04-20 23:31 25.03373 -77.45815 7 ft 0 kts 135°
2026-04-20 23:32 25.03371 -77.45813 7 ft 2 kts 135°
2026-04-20 23:32 25.03349 -77.45790 7 ft 6 kts 135°
2026-04-20 23:32 25.03307 -77.45744 7 ft 10 kts 134°
2026-04-20 23:32 25.03240 -77.45698 7 ft 12 kts 186°
2026-04-20 23:33 25.03159 -77.45716 7 ft 9 kts 163°
2026-04-20 23:33 25.03108 -77.45650 7 ft 12 kts 117°
2026-04-20 23:33 25.03111 -77.45618 7 ft 0 kts 56°
2026-04-20 23:33 25.03109 -77.45613 7 ft 1 kts 133°
2026-04-20 23:34 25.03100 -77.45628 7 ft 5 kts 262°
2026-04-20 23:34 25.03097 -77.45653 7 ft 1 kts 232°
2026-04-20 23:34 25.03094 -77.45656 7 ft 0 kts 227°
2026-04-20 23:34 25.03091 -77.45660 7 ft 0 kts 227°
2026-04-20 23:35 25.03089 -77.45662 7 ft 0 kts 227°